N482VX KAHC-MMCU

Flight info

Callsign N482VX
Flight time N/A
Altitude 41000
Route FMG J92 BTY J86 FUZZY DCT PXR DCT VIXER VIXER1B
Aircraft C700/M-SBDGHM1RWXY/LB2

Departure

Time 2026-04-23 15:03
Airport Amedee Army Air Field (KAHC)

Arrival

Time N/A
Airport General Roberto Fierro Villalobos International Airport (MMCU)
Time Latitude Longitude Altitude Speed Heading
2026-04-23 14:54 40.26570 -120.13922 4042 ft 0 kts 90°
2026-04-23 15:00 40.26570 -120.13921 4039 ft 0 kts 91°
2026-04-23 15:01 40.26565 -120.13919 4039 ft 1 kts 167°
2026-04-23 15:01 40.26552 -120.13938 4038 ft 6 kts 231°
2026-04-23 15:01 40.26532 -120.13969 4035 ft 1 kts 226°
2026-04-23 15:01 40.26531 -120.13970 4036 ft 0 kts 226°
2026-04-23 15:02 40.26524 -120.13981 4031 ft 5 kts 226°
2026-04-23 15:02 40.26474 -120.14033 4035 ft 11 kts 218°
2026-04-23 15:02 40.26469 -120.14060 4040 ft 0 kts 276°
2026-04-23 15:02 40.26488 -120.14213 4039 ft 49 kts 279°
2026-04-23 15:03 40.26587 -120.15017 4040 ft 126 kts 276°
2026-04-23 15:03 40.26718 -120.16430 4158 ft 180 kts 283°
2026-04-23 15:03 40.26947 -120.18149 4846 ft 204 kts 277°
2026-04-23 15:03 40.26906 -120.20037 5974 ft 210 kts 257°
2026-04-23 15:04 40.26076 -120.21582 7050 ft 217 kts 212°
2026-04-23 15:04 40.24559 -120.21983 7902 ft 239 kts 171°
2026-04-23 15:04 40.23008 -120.21002 8706 ft 262 kts 141°
2026-04-23 15:04 40.21527 -120.19432 9580 ft 286 kts 142°
2026-04-23 15:05 40.19836 -120.17957 10671 ft 302 kts 148°
2026-04-23 15:05 40.17941 -120.16536 11599 ft 322 kts 149°
2026-04-23 15:05 40.16002 -120.15043 12964 ft 327 kts 147°
2026-04-23 15:05 40.14062 -120.13474 14185 ft 336 kts 146°
2026-04-23 15:06 40.12045 -120.11854 15332 ft 343 kts 146°
2026-04-23 15:06 40.09983 -120.10229 16482 ft 350 kts 147°
2026-04-23 15:06 40.07877 -120.08567 17624 ft 356 kts 147°
2026-04-23 15:06 40.05739 -120.06872 18678 ft 363 kts 147°
2026-04-23 15:07 40.03559 -120.05145 19595 ft 369 kts 147°
2026-04-23 15:07 40.01348 -120.03398 20461 ft 374 kts 147°
2026-04-23 15:07 39.99107 -120.01629 21293 ft 379 kts 147°
2026-04-23 15:07 39.96843 -119.99842 22127 ft 383 kts 148°
2026-04-23 15:08 39.94547 -119.98031 22961 ft 388 kts 148°
2026-04-23 15:08 39.92224 -119.96200 23793 ft 392 kts 148°
2026-04-23 15:08 39.89875 -119.94351 24480 ft 396 kts 148°
2026-04-23 15:09 39.85143 -119.90630 25841 ft 404 kts 148°
2026-04-23 15:09 39.82727 -119.88731 26507 ft 407 kts 149°
2026-04-23 15:09 39.80289 -119.86818 27176 ft 411 kts 149°
2026-04-23 15:09 39.77826 -119.84887 27818 ft 415 kts 149°
2026-04-23 15:10 39.75341 -119.82940 28455 ft 419 kts 149°
2026-04-23 15:10 39.72830 -119.80974 29081 ft 423 kts 149°
2026-04-23 15:10 39.70299 -119.78994 29697 ft 427 kts 149°
2026-04-23 15:10 39.67745 -119.76998 30284 ft 431 kts 149°
2026-04-23 15:11 39.65161 -119.74981 30748 ft 435 kts 149°
2026-04-23 15:11 39.62547 -119.72942 31165 ft 441 kts 150°
2026-04-23 15:11 39.59934 -119.70906 31591 ft 446 kts 150°
2026-04-23 15:11 39.57257 -119.68821 32000 ft 451 kts 150°
2026-04-23 15:12 39.54554 -119.66708 32421 ft 456 kts 150°
2026-04-23 15:12 39.52012 -119.64176 32803 ft 465 kts 139°
2026-04-23 15:12 39.49687 -119.61234 33166 ft 471 kts 137°
2026-04-23 15:12 39.47341 -119.58242 33623 ft 474 kts 138°
2026-04-23 15:13 39.44984 -119.55251 34094 ft 477 kts 138°
2026-04-23 15:13 39.42605 -119.52238 34516 ft 479 kts 139°
2026-04-23 15:13 39.40223 -119.49215 35012 ft 479 kts 139°
2026-04-23 15:13 39.37844 -119.46198 35487 ft 479 kts 139°
2026-04-23 15:14 39.35465 -119.43190 35967 ft 479 kts 139°
2026-04-23 15:14 39.33086 -119.40186 36429 ft 478 kts 139°
2026-04-23 15:14 39.30706 -119.37180 36891 ft 478 kts 140°
2026-04-23 15:14 39.28330 -119.34182 37344 ft 477 kts 140°
2026-04-23 15:15 39.25958 -119.31193 37792 ft 476 kts 140°
2026-04-23 15:15 39.23586 -119.28210 38212 ft 476 kts 140°
2026-04-23 15:15 39.21215 -119.25229 38610 ft 476 kts 140°
2026-04-23 15:15 39.18845 -119.22252 38965 ft 475 kts 140°
2026-04-23 15:16 39.16503 -119.19314 39256 ft 475 kts 140°
2026-04-23 15:16 39.14135 -119.16347 39536 ft 475 kts 140°
2026-04-23 15:16 39.11772 -119.13388 39816 ft 474 kts 140°
2026-04-23 15:16 39.09405 -119.10427 40089 ft 474 kts 140°
2026-04-23 15:17 39.07036 -119.07468 40345 ft 474 kts 140°
2026-04-23 15:17 39.04673 -119.04518 40592 ft 474 kts 140°
2026-04-23 15:17 39.02305 -119.01564 40856 ft 473 kts 140°
2026-04-23 15:17 38.99942 -118.98620 41103 ft 473 kts 140°
2026-04-23 15:18 38.97576 -118.95676 41347 ft 473 kts 140°
2026-04-23 15:18 38.95213 -118.92738 41603 ft 472 kts 140°
2026-04-23 15:18 38.92849 -118.89800 41819 ft 472 kts 140°
2026-04-23 15:18 38.90487 -118.86867 42021 ft 472 kts 141°
2026-04-23 15:19 38.88125 -118.83942 42221 ft 472 kts 140°
2026-04-23 15:19 38.85762 -118.81015 42412 ft 471 kts 141°
2026-04-23 15:19 38.83403 -118.78093 42574 ft 472 kts 140°
2026-04-23 15:19 38.81039 -118.75169 42739 ft 472 kts 141°
2026-04-23 15:20 38.78675 -118.72252 42969 ft 471 kts 141°
2026-04-23 15:20 38.76317 -118.69343 43174 ft 471 kts 141°
2026-04-23 15:20 38.73955 -118.66429 43375 ft 471 kts 141°
2026-04-23 15:20 38.71599 -118.63527 43569 ft 470 kts 141°
2026-04-23 15:21 38.69239 -118.60626 43767 ft 470 kts 141°
2026-04-23 15:21 38.66879 -118.57724 43952 ft 470 kts 141°
2026-04-23 15:21 38.64550 -118.54864 44139 ft 470 kts 141°
2026-04-23 15:21 38.62194 -118.51972 44307 ft 470 kts 141°
2026-04-23 15:22 38.59836 -118.49083 44472 ft 470 kts 141°
2026-04-23 15:22 38.57477 -118.46195 44617 ft 469 kts 141°
2026-04-23 15:22 38.55115 -118.43306 44760 ft 469 kts 141°
2026-04-23 15:22 38.52759 -118.40425 44884 ft 469 kts 141°
2026-04-23 15:23 38.50401 -118.37546 44994 ft 469 kts 141°
2026-04-23 15:23 38.48039 -118.34666 45099 ft 469 kts 141°
2026-04-23 15:23 38.45675 -118.31785 45191 ft 470 kts 141°
2026-04-23 15:24 38.40913 -118.25992 45170 ft 475 kts 141°
2026-04-23 15:24 38.36096 -118.20139 45167 ft 481 kts 141°
2026-04-23 15:25 38.31226 -118.14237 45177 ft 485 kts 141°
2026-04-23 15:25 38.26311 -118.08291 45175 ft 490 kts 141°
2026-04-23 15:26 38.21348 -118.02299 45174 ft 494 kts 141°
2026-04-23 15:26 38.16361 -117.96289 45184 ft 499 kts 141°
2026-04-23 15:27 38.11291 -117.90192 45181 ft 503 kts 141°
2026-04-23 15:27 38.06177 -117.84054 45175 ft 508 kts 141°
2026-04-23 15:28 38.01010 -117.77890 45169 ft 510 kts 143°
2026-04-23 15:28 37.95276 -117.72692 45160 ft 507 kts 150°
2026-04-23 15:29 37.89509 -117.67664 45155 ft 506 kts 150°
2026-04-23 15:29 37.83702 -117.62673 45147 ft 503 kts 150°
2026-04-23 15:30 37.77923 -117.57679 45135 ft 501 kts 150°
2026-04-23 15:30 37.72151 -117.52723 45125 ft 502 kts 150°
2026-04-23 15:31 37.66360 -117.47748 45133 ft 504 kts 150°
2026-04-23 15:31 37.60547 -117.42769 45123 ft 506 kts 150°
2026-04-23 15:32 37.54727 -117.37790 45111 ft 506 kts 150°
2026-04-23 15:32 37.48931 -117.32843 45110 ft 506 kts 150°
2026-04-23 15:33 37.43066 -117.27845 45104 ft 505 kts 151°
2026-04-23 15:33 37.37290 -117.22935 45097 ft 504 kts 151°
2026-04-23 15:34 37.31490 -117.18012 45093 ft 502 kts 151°
2026-04-23 15:34 37.25712 -117.13117 45087 ft 500 kts 151°
2026-04-23 15:35 37.19932 -117.08231 45081 ft 501 kts 151°
2026-04-23 15:35 37.14138 -117.03341 45079 ft 503 kts 151°
2026-04-23 15:36 37.08322 -116.98442 45074 ft 504 kts 151°
2026-04-23 15:36 37.02494 -116.93540 45069 ft 503 kts 151°
2026-04-23 15:37 36.96504 -116.88514 45067 ft 500 kts 152°
2026-04-23 15:37 36.91403 -116.84242 45067 ft 497 kts 152°
2026-04-23 15:38 36.85659 -116.79439 45058 ft 498 kts 152°
2026-04-23 15:38 36.80021 -116.74366 45055 ft 506 kts 143°
2026-04-23 15:39 36.75217 -116.67827 45057 ft 513 kts 136°
2026-04-23 15:39 36.70500 -116.61130 45054 ft 513 kts 136°